GLOBALSTAR M037 [-]

Last updated on May 3, 2016, 11:39 p.m. UTC

1 25652U 99012D   16124.56160987 -.00000169  00000-0 -36475-3 0  9993
2 25652  52.0008 248.3496 0001444  29.6564  48.9951 12.62288320790576
UTC
Height (km)
Latitude
Longitude
Inclination
Orbital Period
UTC large
Height (km)
Speed (km/s)
/
Latitude / Longitude
Inclination (degrees)
Orbital Period (minutes)
Azimuth
Elevation
Range (km)
Doppler Factor
iOS Compass Heading
iOS Angle